[[{"header":{"parameterUnit":"m.s-1","parameterCategory":1,"la1":30.2991,"la2":30.254,"lo1":-89.0895,"lo2":-89.0444,"dy":0.0017,"dx":0.0017,"nx":28,"ny":28,"refTime":"2024-05-26T03:00:00:Z","depth":0,"parameterNumber":2,"parameterNumberName":"U-component_of_WINDS"},"data":[0,0,0,0,0,0,0,0,0,0,0,0,0,0,0,0,0,0,0,0,0,0,0,0,0,0,0,0,0,0,0,0,0,0,0,0,0,0,0,0,0,0,0,0,0,0,0,0,0,0,0,0,0,0,0,0,0,0,2.1261,2.1263,0,2.1413,2.1415,2.1417,2.1442,2.1441,2.144,2.1438,2.1596,2.1601,2.1606,0,0,0,0,0,0,0,0,0,0,0,0,0,2.0995,2.1,2.1261,2.1263,2.1265,2.1413,2.1415,2.1417,2.1442,2.1441,2.1439,2.1438,2.1594,2.16,2.1607,0,0,0,0,0,0,0,0,0,0,0,0,0,2.1125,2.1002,2.1261,2.1295,2.13,2.1412,2.1415,2.1418,2.1443,2.1441,2.1439,2.1437,2.1592,2.16,2.1608,2.1697,0,0,2.1633,2.1636,0,0,0,0,0,0,0,0,2.1118,2.1135,2.1288,2.1293,2.1299,2.1407,2.1379,2.1511,2.1443,2.1389,2.1438,2.1436,2.1535,2.1547,2.158,2.1704,2.1711,2.1633,2.1638,2.1642,2.1644,0,0,0,0,0,0,0,2.1109,2.1129,2.1321,2.1291,2.1297,2.1304,2.132,2.1404,2.1471,2.1393,2.1395,2.1413,2.1537,2.1572,2.1584,2.1713,2.1633,2.164,2.1645,2.1648,2.192,2.1923,0,0,0,0,0,0,2.1093,2.1121,2.1316,2.1326,2.1202,2.131,2.1329,2.1374,2.147,2.1483,2.1414,2.1414,2.1559,2.1575,2.159,2.1702,2.1642,2.1649,2.1654,2.1918,2.1921,2.1923,0,0,0,0,0,0,2.1088,2.1111,2.131,2.1224,2.125,2.1317,2.1368,2.1378,2.1413,2.1486,2.1498,2.1438,2.1558,2.1578,2.167,2.1707,2.1653,2.166,2.1915,2.1919,2.1922,2.1925,0,0,0,0,0,0,2.108,2.1108,2.1142,2.1225,2.1255,2.1388,2.137,2.1382,2.1427,2.1427,2.1511,2.1523,2.1558,2.1658,2.1678,2.1718,2.1667,2.1912,2.1917,2.1921,2.1922,2.1929,2.1934,0,0,0,0,0,2.107,2.1137,2.1144,2.1167,2.1298,2.139,2.1407,2.1445,2.143,2.1465,2.1512,2.1521,2.17,2.1667,2.169,2.1733,2.191,2.1916,2.1921,2.192,2.1927,2.1934,0,0,0,0,0,0,2.1057,2.1148,2.1157,2.1252,2.1313,2.1394,2.1439,2.1452,2.1519,2.1516,2.1562,2.158,2.1671,2.1711,2.1673,2.1825,2.1804,2.1814,2.1795,2.1803,2.1809,2.1798,2.1673,0,0,0,0,0,2.1065,2.1131,2.1208,2.1284,2.1314,2.1371,2.1413,2.1437,2.1502,2.1528,2.1582,2.1645,2.1716,2.1762,2.1831,2.1928,2.1948,2.1969,2.1974,2.1979,2.1987,2.2044,2.2054,2.1941,2.1941,2.1941,0,0,2.1083,2.1141,2.118,2.1283,2.1333,2.1402,2.1393,2.1465,2.1517,2.1539,2.163,2.1672,2.1746,2.1841,2.1886,2.1877,2.2023,2.1986,2.1989,2.1995,2.205,2.2061,2.207,2.1945,2.1944,2.1943,0,0,2.115,2.12,2.127,2.132,2.1396,2.1434,2.1451,2.1531,2.1559,2.165,2.1669,2.1732,2.1852,2.1905,2.1947,2.2035,2.2047,2.2057,2.2088,2.2142,2.2151,2.2159,2.2192,2.2203,2.2065,2.2065,2.2065,0,2.1162,2.1265,2.1304,2.1377,2.1422,2.1446,2.1518,2.1565,2.166,2.1691,2.168,2.1833,2.1884,2.1993,2.2015,2.2048,2.207,2.2048,2.2146,2.2155,2.2163,2.2195,2.2207,2.2066,2.2066,2.2065,2.2065,0,2.1278,2.1349,2.1397,2.1488,2.1539,2.161,2.1661,2.1708,2.1729,2.1768,2.1862,2.1924,2.2007,2.2034,2.2055,2.2147,2.2139,2.2137,2.2117,2.2174,2.2205,2.2217,2.2067,2.2066,2.2066,2.2066,0,0,2.134,2.1453,2.147,2.1512,2.1598,2.1654,2.1728,2.1809,2.1849,2.1914,2.1977,2.2079,2.2078,2.2126,2.2153,2.22,2.2268,2.2192,2.2194,2.2205,2.2375,2.2377,2.2391,2.2276,2.2278,2.228,2.2369,0,2.1418,2.1549,2.1587,2.1698,2.1766,2.179,2.1854,2.1914,2.1953,2.2017,2.206,2.2132,2.2124,2.2154,2.2201,2.2249,2.2303,2.2243,2.2337,2.2339,2.2318,2.2406,2.2409,2.249,2.2381,2.2383,2.2385,0,2.1526,2.1594,2.1711,2.179,2.182,2.1877,2.1955,2.2015,2.2085,2.211,2.2164,2.2187,2.2266,2.2241,2.2351,2.231,2.2351,2.238,2.2384,2.2395,2.2366,2.2421,2.2516,2.2529,2.2404,2.2403,2.2401,0,2.1562,2.1682,2.1768,2.1803,2.1897,2.1937,2.1978,2.2046,2.2093,2.2161,2.2192,2.2269,2.2311,2.237,2.2414,2.2391,2.2521,2.2499,2.2545,2.2544,2.2572,2.2569,2.2676,2.2596,2.2596,2.2595,2.2595,0,2.1645,2.1717,2.1785,2.1838,2.192,2.1963,2.2043,2.2085,2.2146,2.2208,2.2234,2.2292,2.2345,2.2411,2.2446,2.2533,2.2551,2.2575,2.2583,2.2573,2.257,2.2601,2.2597,2.2599,2.2598,2.2597,2.2597,0,2.1698,2.1747,2.1843,2.1925,2.1947,2.2003,2.2074,2.2127,2.2167,2.2246,2.2267,2.2331,2.241,2.2459,2.2559,2.2582,2.2678,2.2684,2.2655,2.2659,2.2702,2.2698,2.2833,2.2854,2.2759,2.2759,2.276,0,2.1749,2.1805,2.1893,2.1936,2.1978,2.2048,2.2096,2.2142,2.2191,2.2275,2.2319,2.2399,2.2466,2.2592,2.2647,2.2724,2.2733,2.2775,2.2745,2.2734,2.2735,2.2732,2.2738,2.278,2.2781,2.2782,2.2782,0,2.1834,2.1856,2.1924,2.2001,2.2058,2.2121,2.2183,2.2218,2.2274,2.2329,2.241,2.2462,2.2565,2.2645,2.2727,2.2771,2.2787,2.2791,2.2806,2.2797,2.2778,2.279,2.267,2.2788,2.2788,2.2787,2.2787,2.2787,2.1888,2.194,2.201,2.2086,2.2138,2.2196,2.2251,2.2298,2.2366,2.2454,2.2477,2.2562,2.2632,2.2744,2.2789,2.2857,2.2852,2.2873,2.2878,2.2883,2.2885,2.2766,2.2872,2.2872,2.2872,2.2872,2.2872,0,2.1976,2.2023,2.2092,2.2179,2.2239,2.2248,2.2319,2.2368,2.2443,2.2507,2.2573,2.2667,2.2745,2.2807,2.2888,2.2931,2.294,2.295,2.2948,2.2958,2.2885,2.2864,2.2942,2.2941,2.2941,2.2941,2.2941,2.2941,2.2028,2.2116,2.2146,2.2261,2.2307,2.2391,2.2431,2.2486,2.2537,2.2641,2.2706,2.2746,2.281,2.2895,2.2968,2.2984,2.3014,2.3023,2.3041,2.2971,2.2963,2.2956,2.2937,2.3028,2.3029,2.3109,2.311,2.311]},{"header":{"parameterUnit":"m.s-1","parameterCategory":1,"la1":30.2991,"la2":30.254,"lo1":-89.0895,"lo2":-89.0444,"dy":0.0017,"dx":0.0017,"nx":28,"ny":28,"refTime":"2024-05-26T03:00:00:Z","depth":0,"parameterNumber":3,"parameterNumberName":"V-component_of_WINDS"},"data":[0,0,0,0,0,0,0,0,0,0,0,0,0,0,0,0,0,0,0,0,0,0,0,0,0,0,0,0,0,0,0,0,0,0,0,0,0,0,0,0,0,0,0,0,0,0,0,0,0,0,0,0,0,0,0,0,0,0,5.7898,5.7899,0,5.7994,5.7995,5.7996,5.7977,5.7975,5.7973,5.7972,5.8061,5.8065,5.8069,0,0,0,0,0,0,0,0,0,0,0,0,0,5.769,5.7694,5.7898,5.79,5.7901,5.7994,5.7995,5.7996,5.7977,5.7975,5.7973,5.7971,5.806,5.8064,5.8069,0,0,0,0,0,0,0,0,0,0,0,0,0,5.7782,5.7695,5.7898,5.7903,5.7904,5.7994,5.7995,5.7997,5.7978,5.7975,5.7972,5.797,5.8058,5.8064,5.807,5.8158,0,0,5.8088,5.8091,0,0,0,0,0,0,0,0,5.7777,5.779,5.7901,5.7902,5.7904,5.7971,5.7954,5.8051,5.7978,5.7949,5.7972,5.7969,5.8033,5.804,5.8064,5.8163,5.8166,5.8089,5.8092,5.8095,5.8096,0,0,0,0,0,0,0,5.7771,5.7786,5.7936,5.7902,5.7904,5.7897,5.7907,5.7973,5.8004,5.7952,5.7951,5.7963,5.8033,5.8058,5.8066,5.8168,5.8088,5.8094,5.8097,5.81,5.8343,5.8346,0,0,0,0,0,0,5.7764,5.778,5.7933,5.7939,5.7833,5.7903,5.7914,5.7952,5.8003,5.8009,5.7965,5.7961,5.8049,5.8059,5.8069,5.8176,5.8095,5.81,5.8104,5.8341,5.8344,5.8347,0,0,0,0,0,0,5.776,5.7778,5.7929,5.7859,5.7878,5.7909,5.7952,5.7955,5.7981,5.8013,5.8018,5.7985,5.8048,5.806,5.8137,5.8179,5.8103,5.8108,5.8337,5.8342,5.8346,5.8392,0,0,0,0,0,0,5.7754,5.7776,5.7813,5.7861,5.7882,5.7998,5.7954,5.7959,5.7992,5.7989,5.8034,5.8039,5.8046,5.8128,5.8143,5.8186,5.8113,5.8334,5.8339,5.8344,5.8387,5.8397,5.8406,0,0,0,0,0,5.7746,5.782,5.7814,5.7833,5.7928,5.8001,5.8013,5.8023,5.7996,5.8031,5.8052,5.8037,5.8172,5.8136,5.8152,5.8198,5.8331,5.8338,5.8344,5.8382,5.8395,5.8406,0,0,0,0,0,0,5.7772,5.7826,5.7821,5.7913,5.7953,5.7998,5.8042,5.8036,5.8082,5.8077,5.8084,5.8095,5.8173,5.8192,5.8152,5.8286,5.8247,5.8257,5.8271,5.8283,5.8293,5.8287,5.8118,0,0,0,0,0,5.779,5.7847,5.7889,5.7966,5.7987,5.8011,5.8043,5.8048,5.8088,5.8104,5.813,5.8168,5.8219,5.8252,5.83,5.8389,5.8398,5.8428,5.8438,5.8446,5.8455,5.8503,5.8517,5.8369,5.8369,5.8368,0,0,5.7824,5.7861,5.7896,5.7972,5.8004,5.8061,5.8026,5.8087,5.8128,5.8112,5.8188,5.8208,5.825,5.8333,5.8371,5.8352,5.8498,5.8454,5.8461,5.8465,5.8511,5.8525,5.8538,5.8373,5.8372,5.8371,0,0,5.7917,5.7951,5.8019,5.8052,5.8101,5.8117,5.8133,5.818,5.8194,5.827,5.8259,5.8306,5.8394,5.8425,5.8451,5.8556,5.8544,5.8571,5.8622,5.8669,5.8681,5.8691,5.8729,5.8742,5.8579,5.8579,5.858,0,5.7953,5.8042,5.8054,5.8117,5.815,5.8142,5.8209,5.8239,5.83,5.8322,5.8301,5.8411,5.8439,5.8529,5.8555,5.8577,5.8594,5.8566,5.8679,5.8689,5.8699,5.8735,5.8749,5.8582,5.8582,5.8582,5.8582,0,5.8084,5.8145,5.8193,5.8257,5.8295,5.836,5.8379,5.8416,5.8417,5.8434,5.851,5.8543,5.8599,5.862,5.862,5.871,5.8697,5.8677,5.8638,5.8716,5.875,5.8764,5.8587,5.8586,5.8585,5.8584,0,0,5.8196,5.8266,5.8284,5.8313,5.8367,5.8413,5.8476,5.8533,5.8564,5.8606,5.8659,5.8733,5.8715,5.8746,5.8749,5.879,5.8871,5.8765,5.8766,5.8784,5.8972,5.8988,5.9004,5.8863,5.8866,5.8868,5.8969,0,5.8294,5.8411,5.8423,5.8526,5.8582,5.8574,5.8629,5.8666,5.8683,5.8731,5.8748,5.8802,5.8774,5.8793,5.8833,5.8853,5.8909,5.8845,5.891,5.8913,5.8901,5.9021,5.9038,5.9132,5.8982,5.8984,5.8986,0,5.8425,5.8475,5.8584,5.8631,5.8655,5.8705,5.8758,5.8804,5.8845,5.8855,5.889,5.8887,5.895,5.8908,5.8994,5.895,5.8977,5.8991,5.8994,5.9001,5.8955,5.9032,5.9162,5.9176,5.9007,5.9005,5.9003,0,5.8497,5.859,5.8668,5.8693,5.8749,5.8784,5.8809,5.8848,5.8881,5.8926,5.8948,5.8998,5.9026,5.9064,5.9074,5.9043,5.916,5.9119,5.9168,5.9168,5.9194,5.9192,5.9331,5.921,5.921,5.9209,5.9209,0,5.8606,5.8673,5.8702,5.875,5.8824,5.8836,5.8908,5.893,5.8965,5.9015,5.9009,5.9055,5.9066,5.9113,5.9121,5.9191,5.9203,5.9211,5.9213,5.9213,5.9212,5.9231,5.9225,5.9213,5.9212,5.9211,5.9211,0,5.8699,5.8722,5.8806,5.8853,5.8866,5.8919,5.8958,5.9002,5.9019,5.9082,5.9097,5.9122,5.9178,5.9192,5.9257,5.9263,5.9345,5.934,5.9333,5.9333,5.9382,5.9377,5.9538,5.9559,5.9424,5.9425,5.9426,0,5.8768,5.8821,5.8874,5.8909,5.8936,5.8991,5.9026,5.9039,5.9075,5.9126,5.9164,5.922,5.9265,5.9354,5.9376,5.9426,5.9422,5.9475,5.943,5.9428,5.9424,5.9421,5.9426,5.9484,5.9485,5.9487,5.9487,0,5.8888,5.8897,5.895,5.9006,5.9049,5.9093,5.9135,5.9163,5.9181,5.9221,5.9281,5.9316,5.9384,5.9439,5.9489,5.9511,5.9502,5.9502,5.9516,5.9517,5.9511,5.9515,5.9357,5.9498,5.9497,5.9496,5.9496,5.9495,5.8972,5.9018,5.9064,5.9122,5.9156,5.9196,5.9241,5.9264,5.9314,5.9373,5.9376,5.944,5.9478,5.9546,5.957,5.9618,5.9602,5.9622,5.9627,5.9633,5.9638,5.9503,5.9627,5.9627,5.9626,5.9626,5.9626,0,5.9092,5.9122,5.9176,5.9237,5.9282,5.9273,5.9319,5.9356,5.9414,5.9452,5.9498,5.9564,5.9617,5.9644,5.9696,5.9729,5.9727,5.9743,5.9741,5.9746,5.9649,5.9632,5.9744,5.9744,5.9744,5.9744,5.9744,5.9744,5.9161,5.9239,5.9253,5.9346,5.9374,5.9439,5.9466,5.9502,5.9533,5.9609,5.9655,5.9673,5.9705,5.976,5.9807,5.9813,5.9833,5.9851,5.9855,5.9764,5.9752,5.9741,5.9725,5.9855,5.9856,5.9949,5.995,5.995]}]]